Starlink 11703

operational
NORAD ID: 63759 Int'l Des: 2025-089 Owner: SPXS Country: US Constellation: starlink
LEOCIRCULAR

Über Starlink 11703

Beschreibung wird geladen...

Live-Position

3D-Globus wird geladen...

Nächste Überflüge

Höhenverlauf

Altitude vs Time

uPlot chart will show altitude changes over time

Zweizeiliger Elementsatz

1 63759U 25089J 25305.80277772 .00275057 00000-0 20722-2 0 9990
2 63759 43.0012 342.9736 0000688 318.7782 41.3033 15.70893425 30027
Epoch: 1. Nov. 2025 • Age: 52 hours

Aktueller Status

Höhe 356.0 km
Geschwindigkeit 7.70 km/s
Subsatellitenpunkt 42.67°N, 13.62°E
Startdatum 29. Apr. 2025
Alter 0.5 years
Typ internet

Technische Details

Klassifizierung Payload
Masse 960.00 kg
Trockenmasse 910.00 kg
Gesamtmasse 960.00 kg
Länge 0.30 m
Durchmesser 4.10 m
Spannweite 29.00 m
Form Box + pan
Hersteller SPXS
Bus-Typ Starlink V2MD
Phasenstatus In Orbit
Besitzer/Staat SPXS/US

Große Konstellationen

Loading constellations...